NI4CE-14 Weather Reports


Display with metric or nautical units.
time (UTC)temp
F
wind
direction
speed
MPH
gust
MPH
rain 1hr
in
rain 24hr
in
rain mn
in
humidity
%
barometer
mb
20260506042813 79 168 0.0 0.0 0.00 0.00 0.00 100 1014.7
20260506042551 79 168 0.0 0.0 0.00 0.00 0.00 100 1015.1
20260506042314 79 168 0.0 0.0 0.00 0.00 0.00 100 1014.9
20260506042148 79 168 0.0 0.0 0.00 0.00 0.00 100 1015.0
20260506041839 79 168 0.0 0.0 0.00 0.00 0.00 100 1015.0
20260506041814 79 168 0.0 0.0 0.00 0.00 0.00 100 1015.1
20260506041314 79 168 0.0 0.0 0.00 0.00 0.00 100 1015.0
20260506040814 79 168 0.0 0.0 0.00 0.00 0.00 100 1014.9
20260506040314 80 168 0.0 0.0 0.00 0.00 0.00 100 1014.7
20260506035814 80 168 0.0 0.0 0.00 0.00 0.00 100 1014.6
20260506035314 80 168 0.0 0.0 0.00 0.00 0.00 100 1014.7
20260506034814 80 168 0.0 0.0 0.00 0.00 0.00 100 1014.6
20260506034314 80 168 0.0 0.0 0.00 0.00 0.00 100 1014.6
20260506033814 80 168 0.0 0.0 0.00 0.00 0.00 100 1014.5
20260506033314 80 168 0.0 0.0 0.00 0.00 0.00 100 1014.5
20260506032814 80 168 0.0 0.0 0.00 0.00 0.00 100 1014.6
20260506032314 80 168 0.0 0.0 0.00 0.00 0.00 100 1014.6
20260506031814 80 168 0.0 1.0 0.00 0.00 0.00 100 1014.6
20260506031314 80 175 0.0 2.0 0.00 0.00 0.00 100 1014.7
20260506030814 80 7 0.0 0.0 0.00 0.00 0.00 100 1014.6
20260506030337 80 7 0.0 0.0 0.00 0.00 0.00 100 1014.7
20260506030314 80 7 0.0 0.0 0.00 0.00 0.00 100 1014.7
20260506025814 80 7 0.0 0.0 0.00 0.00 0.00 100 1014.7
20260506025314 80 7 0.0 0.0 0.00 0.00 0.00 100 1014.6
20260506024814 80 7 0.0 0.0 0.00 0.00 0.00 100 1014.4
20260506024314 80 7 0.0 0.0 0.00 0.00 0.00 100 1014.3
20260506023814 80 7 0.0 0.0 0.00 0.00 0.00 100 1014.0
20260506023314 80 7 0.0 0.0 0.00 0.00 0.00 100 1013.9
20260506022814 80 7 0.0 0.0 0.00 0.00 0.00 100 1013.9
20260506022314 81 7 0.0 0.0 0.00 0.00 0.00 100 1013.9
20260506021814 80 7 0.0 0.0 0.00 0.00 0.00 100 1013.8
20260506021544 81 7 0.0 0.0 0.00 0.00 0.00 100 1013.8
20260506021314 81 7 0.0 0.0 0.00 0.00 0.00 100 1013.8
20260506020814 81 7 0.0 0.0 0.00 0.00 0.00 100 1013.8
20260506020335 81 7 0.0 0.0 0.00 0.00 0.00 100 1013.8
20260506020314 81 7 0.0 0.0 0.00 0.00 0.00 100 1013.8
20260506015814 81 7 0.0 0.0 0.00 0.00 0.00 100 1013.8
20260506015314 81 7 0.0 0.0 0.00 0.00 0.00 100 1013.7
20260506014814 81 7 0.0 0.0 0.00 0.00 0.00 100 1013.7
20260506014733 81 7 0.0 0.0 0.00 0.00 0.00 100 1013.6
20260506014314 81 7 0.0 0.0 0.00 0.00 0.00 100 1013.6
20260506013814 81 7 0.0 0.0 0.00 0.00 0.00 100 1013.5
20260506013314 81 7 0.0 0.0 0.00 0.00 0.00 100 1013.4
20260506012814 81 7 0.0 0.0 0.00 0.00 0.00 100 1013.4
20260506012314 81 7 0.0 0.0 0.00 0.00 0.00 100 1013.4
20260506011814 81 7 0.0 0.0 0.00 0.00 0.00 100 1013.3
20260506011314 81 7 0.0 0.0 0.00 0.00 0.00 100 1013.4
20260506010814 81 7 0.0 0.0 0.00 0.00 0.00 100 1013.3
20260506010314 82 7 0.0 0.0 0.00 0.00 0.00 100 1011.2
20260506005814 81 7 0.0 0.0 0.00 0.00 0.00 100 1011.1
20260506005314 82 7 0.0 0.0 0.00 0.00 0.00 100 1011.2
20260506004814 82 7 0.0 0.0 0.00 0.00 0.00 100 1011.2
20260506004314 82 7 0.0 0.0 0.00 0.00 0.00 100 1011.4
20260506003814 82 7 0.0 0.0 0.00 0.00 0.00 100 1010.8
20260506003314 82 7 0.0 0.0 0.00 0.00 0.00 100 1011.3
20260506002814 83 7 0.0 0.0 0.00 0.00 0.00 100 1012.9
20260506002314 83 7 0.0 0.0 0.00 0.00 0.00 100 1012.8
20260506001814 83 7 0.0 0.0 0.00 0.00 0.00 100 1012.7
20260506001314 83 7 0.0 0.0 0.00 0.00 0.00 100 1012.6
20260506001001 83 1 2.0 3.0 0.00 0.00 0.00 100 1010.9
20260506000909 83 1 2.0 3.0 0.00 0.00 0.00 100 1010.9
20260506000814 83 7 0.0 0.0 0.00 0.00 0.00 100 1012.3
20260506000314 83 4 0.0 4.0 0.00 0.00 0.00 100 1010.7
20260505235814 83 1 2.0 3.0 0.00 0.00 0.00 100 1010.9
20260505235314 83 18 0.0 4.0 0.00 0.00 0.00 100 1011.0
20260505234814 84 4 4.0 4.0 0.00 0.00 0.00 100 1010.6
20260505234314 84 5 2.0 6.0 0.00 0.00 0.00 100 1010.6
20260505234309 84 16 3.0 7.0 0.00 0.00 0.00 100 1010.5
20260505233814 84 16 3.0 7.0 0.00 0.00 0.00 100 1010.5
20260505233314 84 317 0.0 6.0 0.00 0.00 0.00 100 1010.6
20260505232814 84 255 0.0 4.0 0.00 0.00 0.00 100 1012.6
20260505232314 84 4 0.0 5.0 0.00 0.00 0.00 100 1012.7
20260505231814 84 320 1.0 5.0 0.00 0.00 0.00 100 1012.7
20260505231314 84 2 5.0 7.0 0.00 0.00 0.00 100 1012.7
20260505230814 84 334 5.0 8.0 0.00 0.00 0.00 100 1012.7
20260505230314 84 358 4.0 7.0 0.00 0.00 0.00 100 1012.6
20260505225814 84 315 5.0 7.0 0.00 0.00 0.00 100 1012.7
20260505225314 85 348 5.0 12.0 0.00 0.00 0.00 100 1012.8
20260505224814 85 11 6.0 8.0 0.00 0.00 0.00 100 1012.8
20260505224314 85 30 5.0 8.0 0.00 0.00 0.00 100 1012.8
20260505223814 85 358 5.0 8.0 0.00 0.00 0.00 100 1012.8
20260505223550 85 315 7.0 7.0 0.00 0.00 0.00 100 1012.9
20260505223314 85 315 7.0 7.0 0.00 0.00 0.00 100 1012.9
20260505223100 85 324 6.0 11.0 0.00 0.00 0.00 100 1012.8
20260505222814 85 324 6.0 11.0 0.00 0.00 0.00 100 1012.8
20260505222314 85 357 9.0 9.0 0.00 0.00 0.00 100 1012.8
20260505221814 85 347 5.0 11.0 0.00 0.00 0.00 100 1013.0
20260505221314 86 4 6.0 8.0 0.00 0.00 0.00 100 1012.9
20260505220814 85 46 2.0 12.0 0.00 0.00 0.00 100 1012.9
20260505220314 85 354 5.0 12.0 0.00 0.00 0.00 100 1012.9
20260505215814 86 32 4.0 10.0 0.00 0.00 0.00 100 1012.8
20260505215314 86 14 5.0 10.0 0.00 0.00 0.00 100 1012.9
20260505214814 85 344 8.0 13.0 0.00 0.00 0.00 100 1012.9
20260505214314 85 331 9.0 12.0 0.00 0.00 0.00 100 1012.8
20260505213814 85 331 10.0 12.0 0.00 0.00 0.00 100 1012.8
20260505213506 85 296 10.0 11.0 0.00 0.00 0.00 100 1012.8
20260505213314 85 296 10.0 11.0 0.00 0.00 0.00 100 1012.8
20260505212814 85 5 6.0 11.0 0.00 0.00 0.00 100 1012.7
20260505212314 86 18 3.0 10.0 0.00 0.00 0.00 100 1012.7
20260505211815 86 340 8.0 11.0 0.00 0.00 0.00 100 1012.8
20260505211314 86 358 6.0 9.0 0.00 0.00 0.00 100 1012.9
20260505210814 86 354 5.0 10.0 0.00 0.00 0.00 100 1012.8
20260505210314 86 343 5.0 9.0 0.00 0.00 0.00 100 1012.7
20260505205814 86 358 7.0 12.0 0.00 0.00 0.00 100 1012.7
20260505205314 86 313 8.0 12.0 0.00 0.00 0.00 100 1012.7
20260505204814 86 1 3.0 11.0 0.00 0.00 0.00 100 1012.7
20260505204551 86 309 3.0 12.0 0.00 0.00 0.00 100 1012.7
20260505204314 86 309 3.0 12.0 0.00 0.00 0.00 100 1012.7
20260505203814 86 2 10.0 10.0 0.00 0.00 0.00 100 1012.7
20260505203531 86 310 6.0 11.0 0.00 0.00 0.00 100 1012.7
20260505203314 86 340 6.0 10.0 0.00 0.00 0.00 100 1012.8
20260505202814 86 310 6.0 11.0 0.00 0.00 0.00 100 1012.7
20260505202314 85 14 4.0 11.0 0.00 0.00 0.00 100 1012.7
20260505201814 86 344 8.0 9.0 0.00 0.00 0.00 100 1012.9
20260505201314 86 11 2.0 12.0 0.00 0.00 0.00 100 1013.0
20260505200814 86 324 6.0 10.0 0.00 0.00 0.00 100 1013.1
20260505200314 86 63 4.0 13.0 0.00 0.00 0.00 100 1013.0
20260505195814 86 338 8.0 11.0 0.00 0.00 0.00 100 1013.1
20260505195314 87 331 5.0 9.0 0.00 0.00 0.00 100 1013.0
20260505194814 86 348 6.0 9.0 0.00 0.00 0.00 100 1013.1
20260505194314 87 338 7.0 10.0 0.00 0.00 0.00 100 1013.1
20260505193814 86 336 8.0 13.0 0.00 0.00 0.00 100 1013.2
20260505193452 87 320 6.0 14.0 0.00 0.00 0.00 100 1013.3
20260505193314 87 320 6.0 14.0 0.00 0.00 0.00 100 1013.3
20260505192814 87 358 2.0 10.0 0.00 0.00 0.00 100 1013.3
20260505192315 87 334 0.0 12.0 0.00 0.00 0.00 100 1013.3
20260505191814 87 352 9.0 10.0 0.00 0.00 0.00 100 1013.2
20260505191314 87 40 4.0 9.0 0.00 0.00 0.00 100 1013.3
20260505190814 87 323 6.0 12.0 0.00 0.00 0.00 100 1013.3
20260505190451 87 47 5.0 12.0 0.00 0.00 0.00 100 1013.3
20260505190314 87 47 5.0 12.0 0.00 0.00 0.00 100 1013.3
20260505185918 87 32 3.0 10.0 0.00 0.00 0.00 100 1013.3
20260505185814 87 32 3.0 10.0 0.00 0.00 0.00 100 1013.3
20260505185431 87 36 3.0 13.0 0.00 0.00 0.00 100 1013.2
20260505185314 87 36 3.0 13.0 0.00 0.00 0.00 100 1013.2
20260505184814 87 336 9.0 12.0 0.00 0.00 0.00 100 1013.3
20260505184314 87 307 5.0 10.0 0.00 0.00 0.00 100 1013.4
20260505183814 87 258 9.0 10.0 0.00 0.00 0.00 100 1013.4
20260505183314 87 352 9.0 12.0 0.00 0.00 0.00 100 1013.5
20260505182814 87 338 3.0 8.0 0.00 0.00 0.00 100 1013.5
20260505182314 87 354 6.0 9.0 0.00 0.00 0.00 100 1013.5
20260505181814 86 329 7.0 9.0 0.00 0.00 0.00 100 1013.6
20260505181314 86 1 1.0 8.0 0.00 0.00 0.00 100 1013.5
20260505180814 86 1 4.0 8.0 0.00 0.00 0.00 100 1013.5
20260505180314 86 7 3.0 6.0 0.00 0.00 0.00 100 1013.6
20260505175814 86 71 3.0 9.0 0.00 0.00 0.00 100 1013.8
20260505175314 87 351 4.0 8.0 0.00 0.00 0.00 100 1013.7
20260505174814 87 350 5.0 7.0 0.00 0.00 0.00 100 1013.8
20260505174314 87 345 0.0 6.0 0.00 0.00 0.00 100 1013.8
20260505173814 87 194 0.0 4.0 0.00 0.00 0.00 100 1013.8
20260505173314 87 25 0.0 7.0 0.00 0.00 0.00 100 1013.9
20260505172814 87 284 0.0 3.0 0.00 0.00 0.00 100 1014.0
20260505172314 86 270 2.0 4.0 0.00 0.00 0.00 100 1014.0
20260505171814 86 357 3.0 6.0 0.00 0.00 0.00 100 1014.0
20260505171315 86 352 6.0 6.0 0.00 0.00 0.00 100 1014.0
20260505170814 86 319 2.0 7.0 0.00 0.00 0.00 100 1014.1
20260505170314 86 358 3.0 4.0 0.00 0.00 0.00 100 1014.2
20260505165315 86 270 0.0 8.0 0.00 0.00 0.00 100 1014.3
20260505164815 86 1 3.0 8.0 0.00 0.00 0.00 100 1014.3
20260505164315 86 291 0.0 1.0 0.00 0.00 0.00 100 1014.4
20260505164013 86 265 0.0 3.0 0.00 0.00 0.00 100 1014.4
20260505163815 86 265 0.0 3.0 0.00 0.00 0.00 100 1014.4
20260505163315 86 1 1.0 5.0 0.00 0.00 0.00 100 1014.4
20260505162815 86 306 0.0 2.0 0.00 0.00 0.00 100 1014.4
20260505162525 87 253 0.0 4.0 0.00 0.00 0.00 100 1014.5
20260505162315 87 253 0.0 4.0 0.00 0.00 0.00 100 1014.5
20260505161815 87 216 3.0 3.0 0.00 0.00 0.00 100 1014.4
20260505161315 87 182 0.0 3.0 0.00 0.00 0.00 100 1014.4
20260505160815 87 160 0.0 0.0 0.00 0.00 0.00 100 1014.4
20260505160315 87 160 0.0 2.0 0.00 0.00 0.00 100 1014.3
20260505153315 86 202 4.0 5.0 0.00 0.00 0.00 100 1014.3
20260505152913 85 208 0.0 5.0 0.00 0.00 0.00 100 1014.3
20260505152815 85 208 0.0 5.0 0.00 0.00 0.00 100 1014.3
20260505152315 85 168 3.0 5.0 0.00 0.00 0.00 100 1014.4
20260505151815 85 243 1.0 6.0 0.00 0.00 0.00 100 1014.4
20260505151315 86 198 3.0 7.0 0.00 0.00 0.00 100 1014.5
20260505150815 86 206 1.0 5.0 0.00 0.00 0.00 100 1012.3
20260505150315 86 225 5.0 8.0 0.00 0.00 0.00 100 1014.4
20260505140315 83 194 3.0 8.0 0.00 0.00 0.00 100 1014.3
20260505124815 80 150 5.0 9.0 0.00 0.00 0.00 100 1013.8
20260505124315 79 163 6.0 6.0 0.00 0.00 0.00 100 1013.8
20260505123815 79 174 2.0 10.0 0.00 0.00 0.00 100 1013.8
20260505123315 79 226 0.0 6.0 0.00 0.00 0.00 100 1013.7
20260505123005 77 198 0.0 5.0 0.00 0.00 0.00 100 1013.8
20260505122815 78 184 2.0 5.0 0.00 0.00 0.00 100 1013.7
20260505122315 78 182 2.0 4.0 0.00 0.00 0.00 100 1013.8
20260505121815 77 198 0.0 5.0 0.00 0.00 0.00 100 1013.8
20260505121315 77 177 0.0 7.0 0.00 0.00 0.00 100 1013.8
20260505120815 77 154 0.0 3.0 0.00 0.00 0.00 100 1013.8
20260505120315 76 147 0.0 4.0 0.00 0.00 0.00 100 1013.8
20260505120025 76 168 1.0 1.0 0.00 0.00 0.00 100 1013.8
20260505115815 76 149 0.0 1.0 0.00 0.00 0.00 100 1013.8
20260505115315 76 108 0.0 3.0 0.00 0.00 0.00 100 1013.8
20260505114815 76 144 0.0 3.0 0.00 0.00 0.00 100 1013.9
20260505114315 76 168 1.0 1.0 0.00 0.00 0.00 100 1013.8
20260505113815 76 135 0.0 2.0 0.00 0.00 0.00 100 1013.9
20260505113315 76 194 0.0 0.0 0.00 0.00 0.00 100 1013.8
20260505112815 76 194 0.0 0.0 0.00 0.00 0.00 100 1013.6
20260505112315 76 194 0.0 0.0 0.00 0.00 0.00 100 1013.6
20260505112230 75 194 0.0 0.0 0.00 0.00 0.00 100 1013.4
20260505111815 75 194 0.0 0.0 0.00 0.00 0.00 100 1013.4
20260505111315 76 194 0.0 0.0 0.00 0.00 0.00 100 1013.2
20260505110815 76 195 0.0 0.0 0.00 0.00 0.00 100 1013.1
20260505110315 76 142 0.0 1.0 0.00 0.00 0.00 100 1012.9
20260505101815 76 113 0.0 2.0 0.00 0.00 0.00 100 1012.6
20260505101315 76 125 0.0 2.0 0.00 0.00 0.00 100 1012.6
20260505100815 76 170 0.0 2.0 0.00 0.00 0.00 100 1012.7
20260505100315 76 219 0.0 2.0 0.00 0.00 0.00 100 1012.7
20260505095815 76 56 0.0 0.0 0.00 0.00 0.00 100 1012.7
20260505095315 76 56 0.0 0.0 0.00 0.00 0.00 100 1012.7
20260505094815 76 56 0.0 3.0 0.00 0.00 0.00 100 1012.5
20260505094315 76 156 0.0 2.0 0.00 0.00 0.00 100 1012.5
20260505093815 76 146 0.0 0.0 0.00 0.00 0.00 100 1012.5
20260505093315 76 146 0.0 0.0 0.00 0.00 0.00 100 1012.6
20260505093016 76 146 0.0 0.0 0.00 0.00 0.00 100 1012.7
20260505092815 76 146 0.0 0.0 0.00 0.00 0.00 100 1012.7
20260505092315 76 146 0.0 0.0 0.00 0.00 0.00 100 1012.7
20260505091815 76 146 0.0 0.0 0.00 0.00 0.00 100 1012.7
20260505091315 76 146 0.0 1.0 0.00 0.00 0.00 100 1012.5
20260505090815 76 126 0.0 1.0 0.00 0.00 0.00 100 1012.5
20260505090315 76 61 0.0 0.0 0.00 0.00 0.00 100 1012.5
20260505085815 76 61 0.0 1.0 0.00 0.00 0.00 100 1012.6
20260505085315 76 133 0.0 0.0 0.00 0.00 0.00 100 1012.5
20260505084815 76 158 0.0 2.0 0.00 0.00 0.00 100 1012.4
20260505084315 76 168 0.0 0.0 0.00 0.00 0.00 100 1012.5
20260505083815 76 164 0.0 3.0 0.00 0.00 0.00 100 1012.5
20260505083526 76 67 0.0 1.0 0.00 0.00 0.00 100 1012.5
20260505083315 76 67 0.0 1.0 0.00 0.00 0.00 100 1012.5
20260505082815 76 136 0.0 0.0 0.00 0.00 0.00 100 1012.3
20260505082315 76 140 0.0 0.0 0.00 0.00 0.00 100 1012.3
20260505082007 77 188 1.0 1.0 0.00 0.00 0.00 100 1012.4
20260505081815 77 192 0.0 2.0 0.00 0.00 0.00 100 1012.3
20260505081315 77 188 1.0 1.0 0.00 0.00 0.00 100 1012.4
20260505080815 77 165 0.0 0.0 0.00 0.00 0.00 100 1012.4
20260505080315 77 165 0.0 1.0 0.00 0.00 0.00 100 1012.4
20260505075815 77 153 0.0 4.0 0.00 0.00 0.00 100 1012.3
20260505075315 77 216 0.0 1.0 0.00 0.00 0.00 100 1012.3
20260505074815 77 177 0.0 1.0 0.00 0.00 0.00 100 1012.2
20260505074713 77 95 0.0 2.0 0.00 0.00 0.00 100 1012.2
20260505074315 77 95 0.0 2.0 0.00 0.00 0.00 100 1012.2
20260505073815 77 191 0.0 2.0 0.00 0.00 0.00 100 1012.3
20260505073315 77 125 0.0 4.0 0.00 0.00 0.00 100 1012.4
20260505072815 77 140 0.0 1.0 0.00 0.00 0.00 100 1012.4
20260505072315 77 135 0.0 1.0 0.00 0.00 0.00 100 1012.4
20260505071815 77 127 0.0 1.0 0.00 0.00 0.00 100 1012.5
20260505071542 77 158 0.0 3.0 0.00 0.00 0.00 100 1012.5
20260505071315 77 158 0.0 3.0 0.00 0.00 0.00 100 1012.5
20260505070815 77 104 0.0 2.0 0.00 0.00 0.00 100 1011.9
20260505070315 77 160 0.0 0.0 0.00 0.00 0.00 100 1012.6
20260505070302 77 135 0.0 3.0 0.00 0.00 0.00 100 1012.7
20260505070135 77 160 0.0 4.0 0.00 0.00 0.00 100 1012.7
20260505065815 77 160 0.0 4.0 0.00 0.00 0.00 100 1012.7
20260505065710 77 135 0.0 3.0 0.00 0.00 0.00 100 1012.7
20260505065315 77 135 0.0 3.0 0.00 0.00 0.00 100 1012.7
20260505064815 77 95 0.0 2.0 0.00 0.00 0.00 100 1012.7
20260505064315 78 104 0.0 1.0 0.00 0.00 0.00 100 1012.7
20260505063815 77 115 0.0 3.0 0.00 0.00 0.00 100 1012.7
20260505063315 78 149 0.0 2.0 0.00 0.00 0.00 100 1012.8
20260505062815 78 85 0.0 1.0 0.00 0.00 0.00 100 1012.9
20260505062315 78 136 0.0 4.0 0.00 0.00 0.00 100 1012.9
20260505061816 78 130 0.0 4.0 0.00 0.00 0.00 100 1013.0
20260505061315 78 140 0.0 0.0 0.00 0.00 0.00 100 1013.0
20260505060815 78 140 0.0 0.0 0.00 0.00 0.00 100 1013.1
20260505060316 78 140 0.0 0.0 0.00 0.00 0.00 100 1013.1
20260505055815 78 140 0.0 0.0 0.00 0.00 0.00 100 1013.4
20260505055316 78 140 0.0 3.0 0.00 0.00 0.00 100 1013.5
20260505054816 78 153 3.0 3.0 0.00 0.00 0.00 100 1013.5
20260505054316 78 137 0.0 1.0 0.00 0.00 0.00 100 1013.6
20260505053816 78 139 0.0 2.0 0.00 0.00 0.00 100 1013.7
20260505053316 78 139 0.0 0.0 0.00 0.00 0.00 100 1013.8
20260505052816 78 139 0.0 1.0 0.00 0.00 0.00 100 1013.8
20260505052316 78 113 0.0 0.0 0.00 0.00 0.00 100 1013.8
20260505051816 79 123 0.0 1.0 0.00 0.00 0.00 100 1013.8
20260505051316 79 139 0.0 2.0 0.00 0.00 0.00 100 1013.8
20260505050816 79 156 0.0 1.0 0.00 0.00 0.00 100 1013.9
20260505050316 79 132 0.0 0.0 0.00 0.00 0.00 100 1013.9